Airfield :
LOGIN :

Register | Disclaimer

   EN    FR    IT 

 










Legend :    VFR   Marginal VFR   IFR   Intensive IFR   Very Intensive IFR
Visi :
Ceiling :
>= 8 km
>= 3000ft
5 to 8 km
1000 to 3000 ft
1500m to 5 km
500 to 1000 ft
800 to 1500m
200 to 500 ft
< 800m
< 200 ft
Symbols :   Thunderstorms  Fog  Heavy snow  Heavy precipitations  Wind > 20 kt
SIGMETs :     Misc.  Thunderstorms  Icing  Turbulence  Mountain Waves  Volcanic Ashes







- Airport Elevation : 17 ft
- IATA code : MPL
- Download approach charts


LFMT - Montpellier Méditerranée

CURRENT METAR :
  • 200530Z AUTO 30005KT CAVOK 12/05 Q1020 NOSIG

EXPIRED METARs :
  • 200500Z AUTO 29005KT CAVOK 11/05 Q1020 NOSIG
  • 200430Z AUTO 27005KT CAVOK 11/05 Q1020 NOSIG
  • 200400Z AUTO 29004KT CAVOK 12/05 Q1021 NOSIG
  • 200330Z AUTO 28005KT CAVOK 11/06 Q1021 NOSIG
  • 200300Z AUTO 28006KT CAVOK 12/06 Q1021 NOSIG

TAF TAF LFMT
Valid from the 20 at 03:00 until the 21 at 03:00 UTC


200200Z 2003/2103 VRB05KT CAVOK
BECMG 2013/2016 20010KT
BECMG 2018/2021 VRB03KT
ATIS : +33 4 67 13 11 70
No reported NOTAMs for that airfield.



MET'MAP, your aeronautical weather chart ! - Copyright ORBIFLY December 2007 - Disclaimer

ORBIFLY MET'MAP TEAM :

Programming & Development : Alexandra Zaïnal
Concept & Development : Baudouin d'Aumeries
Co-Development & Prog : Marc-Olivier Méhu
Technical & hardware support : Manuel Goepfert

Contact : metmap@orbifly.com




SOURCES & CREDITS :

   NOAA